Regional Weather Roundup
Issued by NWS

Home | Current Version | Previous Version | Graphics & Text | Print | Product List | Glossary Off
Versions: 1 2 3 4 5 6 7 8 9 10 11 12 13 14 15 16 17 18 19 20 21 22 23 24 25 26 27 28 29 30 31 32 33 34 35 36 37 38 39 40 41 42 43 44 45 46 47 48 49

000
ASUS45 KSLC 040010
RWRUT

UTAH REGIONAL WEATHER ROUNDUP
NATIONAL WEATHER SERVICE SALT LAKE CITY UT
600 PM MDT SUN MAY 03 2015

UTZ001>011-023>025-040100-

NORTHERN UTAH

CITY           SKY/WX    TMP DP  RH WIND       PRES   REMARKS
BRIGHAM CITY   PTSUNNY   73  35  24 N23G29    29.86R
HILL AFB       MOSUNNY   75  35  23 W10       29.86F
LOGAN          MOSUNNY   65  47  52 NE12      29.89F
OGDEN          MOSUNNY   74  39  28 N18G28    29.84F
PROVO AIRPORT  MOSUNNY  N/A N/A N/A NW9       29.83F
SALT LAKE CITY PTSUNNY   77  29  17 CALM      29.82F
VERNAL         PTSUNNY   70  35  27 SE14G22   29.93S
WENDOVER       CLOUDY    75  28  17 CALM      29.83S
HEBER CITY     MOSUNNY   72  28  20 W10       29.88S
WEST JORDAN    SUNNY     79  41  25 CALM      29.86S

$$

UTZ012>022-026-027-040100-

SOUTHERN/CENTRAL UTAH

CITY           SKY/WX    TMP DP  RH WIND       PRES   REMARKS
BLANDING       PTSUNNY   66  33  29 SW6       30.05F
BRYCE CANYON   CLOUDY    53  36  52 SW17      30.09R
CEDAR CITY     PTSUNNY   72  28  19 S9        29.93F
DELTA          PTSUNNY   74  30  19 S18G29    29.84S
HANKSVILLE     MOSUNNY   75  32  20 NW10G18   29.91F
MILFORD        PTSUNNY   74  28  18 SW15G24   29.88S
MOAB/CYNLANDS  MOSUNNY   70  36  28 SW13      29.89S
PRICE          PTSUNNY   67  29  24 SW3       29.95F
ST GEORGE      PTCLDY    82  36  18 S16       29.81S
KANAB          CLOUDY    63  37  39 S6        30.01F

$$

REGIONAL REPORTS     COLORADO/ARIZONA

CITY           SKY/WX    TMP DP  RH WIND       PRES   REMARKS
CRAIG, CO      PTSUNNY   63  39  41 N16G25    30.00R
GRAND JUNCTION CLOUDY    69  36  29 S14       29.91S
RIFLE          PTSUNNY   68  36  30 SE9       29.97R
MONTROSE       CLOUDY    67  33  28 S8        29.98S
CORTEZ         SUNNY     65  35  33 NE7       29.99F
PAGE, AZ       MOSUNNY   75  34  22 W8        29.91R
GRAND CANYON   CLOUDY    55  40  56 NW8       30.07S
KINGMAN        SUNNY     82  31  15 SW17G30   29.84F
FLAGSTAFF      PTSUNNY   63  34  33 SW13G23   30.06S

$$

REGIONAL REPORTS    NEVADA/IDAHO/WYOMING

CITY           SKY/WX    TMP DP  RH WIND       PRES   REMARKS
LAS VEGAS, NV  MOSUNNY   89  29  11 S16       29.68F
ELY            MOSUNNY   74  18  12 S18       29.90F
ELKO           CLOUDY    67  31  26 NW10      29.91R
POCATELLO, ID  PTSUNNY   66  42  41 SE8       29.88S
BURLEY         PTSUNNY   71  40  32 S12       29.83F
EVANSTON, WY   CLOUDY    60  33  36 SW8       30.00R
ROCK SPRINGS   CLOUDY    57  35  43 N6        30.02S
KEMMERER       LGT RAIN  46  37  71 NE8G25    30.03R

$$


USA.gov is the U.S. government's official web portal to all federal, state and local government web resources and services.